Terug naar catalogus

STARLINK-11076

ActiefCommunicatieVLEO
NORAD 58709·PAYLOAD·🇺🇸 United States

Gelanceerd Jan 3, 2024 vanaf Vandenberg Space Force Base

Loading…

Volgende Passages (komende 24 uur)

TLE

VersSource: CelesTrak SupGP

Epoch: Sep 15, 2026, 01:50 UTC

1 58709C 24002E   26258.07687500 -.00024682  00000+0 -20320-3 0  2584
2 58709  53.1572  60.2947 0001006  72.7667 313.4940 15.69735595    14

Volg STARLINK-11076 in realtime met AllMySat

Download on the App Store